916  
ASUS44 KMOB 160012  
RWRMOB  
REGIONAL WEATHER ROUNDUP  
NATIONAL WEATHER SERVICE MOBILE AL  
700 PM CDT SUN SEP 15 2019  
 
NOTE: "FAIR" INDICATES FEW OR NO CLOUDS BELOW 12,000 FEET WITH NO  
SIGNIFICANT WEATHER AND/OR S TO VISIBILITY
.  
 
* THESE STATIONS ARE PART OF THE UNIVERSITY OF SOUTH ALABAMA  
MESONET AND ARE NOT UNDER NWS OR FAA QUALITY CONTROL.
 
 
ALZ061>064-160100-  
COASTAL ALABAMA  
 
CITY SKY/WX TMP DP RH WIND PRES REMARKS
 
MOBILE REG APT FAIR 86 71 60 NE3 29.99S  
6HR MIN TEMP: 86; 6HR MAX TEMP: 95;  
 
BROOKLEY FIELD FAIR 89 71 55 NE6 29.99S HX 95  
6HR MIN TEMP: 89; 6HR MAX TEMP: 94;  
 
USA CAMPUS* N/A 86 70 58 CALM 30.01S  
DOG RIVER* N/A 84 72 65 CALM 29.99R  
 
 
CITY SKY/WX TMP DP RH WIND PRES REMARKS
 
GULF SHORES FAIR 81 74 80 CALM 29.98S  
 

 
 
ALZ051>060-160100-  
INTERIOR SOUTHWEST AND SOUTH CENTRAL ALABAMA  
 
CITY SKY/WX TMP DP RH WIND PRES REMARKS
 
GREENVILLE FAIR 87 63 44 NE5 30.01R  
6HR MIN TEMP: 87; 6HR MAX TEMP: 95;  
 
EVERGREEN FAIR 83 71 67 CALM 30.00S  
6HR MIN TEMP: 83; 6HR MAX TEMP: 95;  
 
ATMORE* N/A 82 72 69 CALM 30.00R  
ANDALUSIA/OPP FAIR 87 67 51 CALM 30.00R  
6HR MIN TEMP: 87; 6HR MAX TEMP: 97;  
 
ANDALUSIA* N/A 84 68 58 E3 30.01S  
FLORALA APT FAIR 86 65 49 CALM 30.01R  
6HR MIN TEMP: 86; 6HR MAX TEMP: 95;  
 
FLORALA* N/A 86 66 51 CALM 30.01S  
 

 
 
FLZ001>006-160100-  
WESTERN FLORIDA PANHANDLE  
 
CITY SKY/WX TMP DP RH WIND PRES REMARKS
 
PENSACOLA FAIR 84 74 71 S5 29.99R  
6HR MIN TEMP: 84; 6HR MAX TEMP: 95;  
 
NAS PENSACOLA MOCLDY 84 74 71 SE6 29.98R  
6HR MIN TEMP: 84; 6HR MAX TEMP: 92;  
 
MILTON FAIR 82 32 16 CALM 29.99R  
6HR MIN TEMP: 82; 6HR MAX TEMP: 94;  
 
WHTNG S FIELD MOCLDY 86 66 51 E6 29.99R  
6HR MIN TEMP: 86; 6HR MAX TEMP: 93;  
 
 
CITY SKY/WX TMP DP RH WIND PRES REMARKS
 
JAY* N/A 84 68 58 CALM 30.01R  
DUKE FIELD FAIR 86 65 49 SE3 29.99R  
CRESTVIEW FAIR 85 68 56 CALM 30.00R  
6HR MIN TEMP: 85; 6HR MAX TEMP: 96;  
 
VALPARAISO FAIR 89 64 43 E5 29.98R  
6HR MIN TEMP: 89; 6HR MAX TEMP: 94;  
 
DESTIN FAIR 87 67 51 NE3 29.98R  
6HR MIN TEMP: 87; 6HR MAX TEMP: 92;  
 

 
 
MSZ076-079-160100-  
INTERIOR SOUTHEAST MISSISSIPPI  
 
CITY SKY/WX TMP DP RH WIND PRES REMARKS
 
LEAKESVILLE* N/A 84 72 65 CALM 30.01S  
AGRICOLA* N/A 84 72 65 CALM 30.01S  
 

 
 
MARINE OBSERVATIONS  
 
STATION/POSITION TIME TEMP WIND PRES WAVE
 
AIR SEA DIR/SP/G HT/PER  
(UTC) (F) (DEG/KT/KT) (MB) (FT/S)  
PETIT BOIS ISLND 2324 84 110/ 7/ 8 1015.3S  
GRAND BAY 2245 85 120/ 8 1016.0S  
KATRINA CUT 2330 84 140/ 5 1015.2S  
CEDAR POINT 2330 85 140/ 5 1015.2S  
E DAUPHIN ISLAND 2300 85 130/ 3/ 4 1015.3R  
MIDDLE BAY LIGHT 2200 86 100/ 4 1014.2  
USCG MOBILE BAY 2330 91 86 80/ 7/ 8 1015.5R  
STATE DOCKS 2324 89 87 1015.3R  
MEAHER PARK 2300 89 60/ 2 1015.6  
WEEKS BAY 2245 86 1015.0S  
FORT MORGAN 2330 85 130/ 4/ 5 1015.3R  
12 S ORANGE BCH 2350 85 86 110/ 8/ 10 1015.2F 4/ 7  
PENSACOLA BAY 2330 87 87 170/ 3/ 5 1015.5R  
64 S DAUPHIN ISL 2340 83 80/ 16/ 19 1014.7R  
 

 
 
SELECTED LOCATIONS ACROSS THE REGION  
 
CITY SKY/WX TMP DP RH WIND PRES REMARKS
 
NEW ORLEANS CLOUDY 87 69 54 E9 29.97F  
GULFPORT FAIR 86 71 60 E9 29.97S  
PASCAGOULA AP FAIR 82 73 74 CALM 29.98S  
PASCAGOULA* N/A 84 70 61 CALM 29.97S  
HATTIESBURG FAIR 86 71 60 CALM 30.00S  
LAUREL FAIR 85 72 65 NE3 30.01S  
MERIDIAN FAIR 88 69 53 NE7 30.02S  
JACKSON FAIR 88 67 49 NE6 30.02R  
MONTGOMERY FAIR 89 66 46 NE8 30.00S  
TROY FAIR 84 71 65 CALM 30.01S  
ASHFORD* N/A 84 68 58 E3 30.01S  
DOTHAN FAIR 86 69 56 CALM 30.03S  
PANAMA CITY FAIR 86 68 54 CALM 29.97R  
 

 
 
 
 
CLICK HERE TO GO TO PREVIOUS BULLETINS.

The Nexlab AL Page
The Nexlab FL Page
The Nexlab MS Page Main Text Page